Weather History for Columbus, OH

Change the Weather History Date:

Wednesday, August 20, 2014

  Actual Average Record
Temperature  
Mean Temperature 80 °F 74 °F  
Max Temperature 90 °F 84 °F 101 °F (1983)
Min Temperature 70 °F 64 °F 50 °F (1949)
Degree Days  
Heating Degree Days 0 0  
Month to date heating degree days 0 0  
Since 1 June heating degree days 1 19  
Since 1 July heating degree days 0 0  
Cooling Degree Days 15 9  
Month to date cooling degree days 186 191  
Year to date cooling degree days 881 799  
Since 1 June cooling degree days 726 717  
Growing Degree Days 30 (Base 50)    
Moisture  
Dew Point 66 °F    
Average Humidity 63    
Maximum Humidity 84    
Minimum Humidity 41    
Precipitation  
Precipitation 0.08 in 0.10 in 2.37 in (2007)
Month to date precipitation 1.68 2.15  
Year to date precipitation 27.29 26.52  
Snow  
Snow 0.00 in 0.00 in 0.00 in ()
Month to date snowfall 0.0 0.0  
Since 1 June snowfall 0.0 0.0  
Since 1 July snowfall 0.0 0.0  
Snow Depth 0.00 in    
Sea Level Pressure  
Sea Level Pressure 29.89 in    
Wind  
Wind Speed 8 mph (SW)    
Max Wind Speed 21 mph    
Max Gust Speed 32 mph    
Visibility 9 miles    
Events Rain    
T = Trace of Precipitation, MM = Missing Value Source: NWS Daily Summary

Daily Weather History Graph

Daily Weather History Graph

Search for Another Location

Airport:

Trip Planner

Search our weather history database for the weather conditions in past years. The results will help you decide how hot, cold, wet, or windy it might be!

Date:

Astronomy

Aug. 20, 2014 Rise Set
Actual Time 6:47 AM EDT 8:21 PM EDT
Civil Twilight 6:19 AM EDT 8:49 PM EDT
Nautical Twilight 5:44 AM EDT 9:24 PM EDT
Astronomical Twilight 5:08 AM EDT 10:00 PM EDT
Moon 2:26 AM EDT (8/20) 5:05 PM EDT (8/20)
Length of Visible Light 14h 30m
Length of Day
13h 33m
Waning Crescent, 21% of the Moon is Illuminated
Aug 20
Waning Crescent
Aug 25
New
Sep 2
First Quarter
Sep 8
Full
Sep 15
Last Quarter

Hourly Weather History & Observations

Time (EDT) Temp. Heat Index Dew Point Humidity Pressure Visibility Wind Dir Wind Speed Gust Speed Precip Events Conditions
12:51 AM 79.0 °F - 68.0 °F 69% 29.82 in 8.0 mi SW 4.6 mph - N/A   Mostly Cloudy
1:51 AM 78.1 °F - 68.0 °F 71% 29.81 in 8.0 mi SSE 4.6 mph - N/A   Mostly Cloudy
2:51 AM 77.0 °F - 68.0 °F 74% 29.79 in 8.0 mi SSE 8.1 mph - N/A   Overcast
3:51 AM 77.0 °F - 68.0 °F 74% 29.80 in 8.0 mi South 4.6 mph - N/A   Overcast
4:51 AM 75.0 °F - 70.0 °F 84% 29.83 in 4.0 mi West 8.1 mph - 0.06 in Rain Rain
5:51 AM 73.0 °F - 66.9 °F 81% 29.83 in 8.0 mi West 5.8 mph - 0.02 in   Mostly Cloudy
6:51 AM 71.1 °F - 66.0 °F 84% 29.85 in 8.0 mi South 4.6 mph - N/A   Overcast
7:51 AM 70.0 °F - 64.9 °F 84% 29.88 in 10.0 mi South 5.8 mph 32.2 mph N/A   Mostly Cloudy
8:51 AM 72.0 °F - 64.9 °F 78% 29.89 in 10.0 mi SW 5.8 mph - N/A   Scattered Clouds
9:51 AM 73.9 °F - 64.9 °F 73% 29.90 in 10.0 mi SW 8.1 mph - N/A   Scattered Clouds
10:51 AM 77.0 °F - 64.9 °F 66% 29.90 in 10.0 mi South 6.9 mph - N/A   Partly Cloudy
11:51 AM 80.1 °F 82.1 °F 66.0 °F 62% 29.91 in 10.0 mi SSW 5.8 mph - N/A   Partly Cloudy
12:51 PM 82.9 °F 85.4 °F 66.9 °F 58% 29.91 in 10.0 mi SSE 9.2 mph - N/A   Scattered Clouds
1:51 PM 84.9 °F 88.2 °F 68.0 °F 57% 29.91 in 10.0 mi South 12.7 mph - N/A   Scattered Clouds
2:51 PM 87.1 °F 88.3 °F 64.0 °F 46% 29.91 in 10.0 mi SW 13.8 mph - N/A   Scattered Clouds
3:51 PM 89.1 °F 90.0 °F 63.0 °F 42% 29.90 in 10.0 mi West 12.7 mph - N/A   Scattered Clouds
4:51 PM 87.8 °F 88.5 °F 62.6 °F 43% 29.92 in 10.0 mi WSW 9.2 mph - N/A   Scattered Clouds
6:51 PM 87.1 °F 87.5 °F 62.1 °F 43% 29.89 in 10.0 mi NW 12.7 mph - 0.00 in   Partly Cloudy
7:51 PM 84.0 °F 85.4 °F 64.0 °F 51% 29.90 in 10.0 mi WNW 5.8 mph - N/A   Scattered Clouds
8:51 PM 82.0 °F 83.1 °F 63.0 °F 52% 29.92 in 10.0 mi Calm Calm - N/A   Scattered Clouds
9:51 PM 78.1 °F - 64.9 °F 64% 29.95 in 10.0 mi South 4.6 mph - N/A   Partly Cloudy
10:51 PM 78.8 °F - 64.4 °F 61% 30.00 in 10.0 mi SW 6.9 mph - N/A   Partly Cloudy
11:51 PM 78.1 °F - 66.0 °F 66% 29.98 in 10.0 mi WSW 8.1 mph - N/A   Scattered Clouds